sat.trackr.live / text

‹ back to catalog

STARLINK-34035

NORAD 63937 · 2025-098M

PAYLOAD ACTIVE UNKNOWN

§ Identity

Operator
Country
US
Launch date
2025-05-13
Launch site
AFWTR
Launch vehicle
Mass (kg)
RCS (m²)

Purposes: comms

External: N2YO · Heavens-Above · Gunter

§ Orbital elements

Epoch: 2026-05-25T03:17:47.164416Z

Period
96.11 min
Inclination
70.0009°
Eccentricity
0.0002677
Mean motion
14.98354872 rev/d
Perigee alt
570.1 km
Apogee alt
573.8 km
Semi-major
6,950.1 km
B*
4.5312e-4
RAAN
81.7016°
Arg perigee
270.4293°
Mean anomaly
89.6559°
Rev number
5,800

§ Raw data

STARLINK-340351 63937U 25098M   26145.13735144  .00005321  00000+0  45312-3 0  99962 63937  70.0009  81.7016 0002677 270.4293  89.6559 14.98354872 58004

JSON: /api/v1/satellites/63937 · /tle

For live sub-satellite position, see the globe view (requires WebGL).

§ Visibility from observer

Set your observer location to see the next 7 days of passes ≥ 10°. The values pass through the URL so the page stays shareable.

No JS? Fill the form by hand. The geolocation button needs JavaScript.